CW1172 Weather Reports


time (UTC)temp
C
wind
direction
speed
KPH
gust
KPH
rain 1hr
cm
rain 24hr
cm
rain mn
cm
humidity
%
barometer
mb
20260507091606 14 278 0.0 0.0 0.00 0.00 0.00 38 1015.2
20260507090056 13 311 0.0 0.0 0.00 0.00 0.00 44 1015.2
20260507084557 13 264 0.0 0.0 0.00 0.00 0.00 49 1015.3
20260507083056 13 222 0.0 0.0 0.00 0.00 0.00 53 1015.1
20260507081550 12 126 0.0 0.0 0.00 0.00 0.00 54 1015.2
20260507080113 12 360 0.0 0.0 0.00 0.00 0.00 58 1015.1
20260507074547 12 321 0.0 0.0 0.00 0.00 0.00 61 1015.1
20260507073050 11 272 0.0 0.0 0.00 0.00 0.00 66 1015.0
20260507071559 11 360 0.0 0.0 0.00 0.00 0.00 65 1014.9
20260507070043 10 205 0.0 0.0 0.00 0.00 0.00 66 1014.8
20260507064545 10 195 0.0 0.0 0.00 0.00 0.00 68 1014.6
20260507063039 8 126 0.0 0.0 0.00 0.00 0.00 71 1014.5
20260507061537 8 126 0.0 0.0 0.00 0.00 0.00 73 1014.5
20260507060033 6 126 0.0 0.0 0.00 0.00 0.00 81 1014.5
20260507054528 5 127 0.0 0.0 0.00 0.00 0.00 83 1014.3
20260507053027 3 126 0.0 0.0 0.00 0.00 0.00 89 1014.1
20260507051518 2 126 0.0 0.0 0.00 0.00 0.00 89 1014.0
20260507050016 1 126 0.0 0.0 0.00 0.00 0.00 89 1014.0
20260507044514 0 125 0.0 0.0 0.00 0.00 0.00 88 1013.9
20260507043014 0 127 0.0 0.0 0.00 0.00 0.00 88 1013.7
20260507041518 0 127 0.0 0.0 0.00 0.00 0.00 88 1013.7
20260507040017 0 126 0.0 0.0 0.00 0.00 0.00 87 1013.5
20260507034519 0 126 0.0 0.0 0.00 0.00 0.00 87 1013.4
20260507033016 -1 128 0.0 0.0 0.00 0.00 0.00 87 1013.4
20260507031512 -1 126 0.0 0.0 0.00 0.00 0.00 87 1013.3
20260507030012 -1 125 0.0 0.0 0.00 0.00 0.00 87 1013.2
20260507024511 -1 126 0.0 0.0 0.00 0.00 0.00 86 1013.3
20260507023010 -1 128 0.0 0.0 0.00 0.00 0.00 86 1013.1
20260507021514 -1 128 0.0 0.0 0.00 0.00 0.00 86 1013.1
20260507020009 0 126 0.0 0.0 0.00 0.00 0.00 85 1013.0
20260507014508 0 126 0.0 0.0 0.00 0.00 0.00 85 1013.0
20260507013006 0 126 0.0 0.0 0.00 0.00 0.00 84 1013.0
20260507011504 0 126 0.0 0.0 0.00 0.00 0.00 84 1012.8
20260507010003 0 140 0.0 0.0 0.00 0.00 0.00 84 1012.9
20260507004501 0 141 0.0 0.0 0.00 0.00 0.00 83 1012.8
20260507003100 0 140 0.0 0.0 0.00 0.00 0.00 83 1012.6
20260507001616 0 141 0.0 0.0 0.00 0.00 0.00 82 1012.8
20260506234559 0 260 0.0 0.0 0.00 0.00 0.00 81 1012.5
20260506233054 0 260 0.0 0.0 0.00 0.00 0.00 80 1012.6
20260506231553 1 360 0.0 0.0 0.00 0.00 0.00 79 1012.5
20260506230052 1 360 0.0 0.0 0.00 0.00 0.00 78 1012.4
20260506224549 1 260 0.0 0.0 0.00 0.00 0.00 77 1012.4
20260506223045 2 360 0.0 0.0 0.00 0.00 0.00 76 1012.4
20260506221545 2 259 0.0 0.0 0.00 0.00 0.00 74 1012.2
20260506220054 2 260 0.0 0.0 0.00 0.00 0.00 73 1012.0
20260506214544 3 259 0.0 0.0 0.00 0.00 0.00 71 1012.0
20260506213040 5 259 0.0 0.0 0.00 0.00 0.00 70 1012.0
20260506211541 5 261 0.0 0.0 0.00 0.00 0.00 69 1011.8
20260506210040 5 241 0.0 0.0 0.00 0.00 0.00 70 1011.8
20260506204540 5 360 0.0 0.0 0.00 0.00 0.00 71 1011.7
20260506203113 5 248 0.0 0.0 0.00 0.00 0.00 69 1011.7
20260506201539 5 198 0.0 0.0 0.00 0.00 0.00 68 1011.6
20260506200047 6 198 0.0 0.0 0.00 0.00 0.00 66 1011.5
20260506194539 6 251 0.0 0.0 0.00 0.00 0.00 63 1011.4
20260506193039 7 252 0.0 0.0 0.00 0.00 0.00 61 1011.3
20260506191544 8 360 0.0 0.0 0.00 0.00 0.00 58 1011.2
20260506190048 8 360 0.0 0.0 0.00 0.00 0.00 54 1011.0
20260506184551 9 252 0.0 0.0 0.00 0.00 0.00 52 1010.9
20260506183039 10 253 0.0 0.0 0.00 0.00 0.00 52 1011.0
20260506181538 10 263 0.0 0.0 0.00 0.00 0.00 48 1010.9
20260506180039 11 360 0.0 0.0 0.00 0.00 0.00 45 1010.8
20260506174537 11 294 0.0 0.0 0.00 0.00 0.00 44 1010.9
20260506173047 12 261 0.0 0.0 0.00 0.00 0.00 44 1010.8
20260506171539 12 360 0.0 0.0 0.00 0.00 0.00 41 1010.8
20260506170038 12 274 0.0 0.0 0.00 0.00 0.00 43 1010.7
20260506164545 13 319 0.0 0.0 0.00 0.00 0.00 43 1010.8
20260506163054 14 30 0.0 0.0 0.00 0.00 0.00 41 1010.8
20260506161538 15 360 0.0 0.0 0.00 0.00 0.00 41 1010.8
20260506160037 14 236 0.0 0.0 0.00 0.00 0.00 42 1010.6
20260506154544 14 284 0.0 0.0 0.00 0.00 0.00 40 1010.6
20260506153037 14 305 0.0 0.0 0.00 0.00 0.00 42 1010.8
20260506151541 13 271 0.0 0.0 0.00 0.00 0.00 41 1010.8
20260506150037 13 299 0.0 0.0 0.00 0.00 0.00 41 1010.7
20260506144534 13 360 0.0 0.0 0.00 0.00 0.00 42 1010.8
20260506143034 13 272 0.0 0.0 0.00 0.00 0.00 43 1010.8
20260506141533 13 246 0.0 0.0 0.00 0.00 0.00 42 1010.9
20260506140035 13 326 0.0 0.0 0.00 0.00 0.00 39 1010.9
20260506134535 13 340 0.0 0.0 0.00 0.00 0.00 38 1010.8
20260506133036 13 317 0.0 0.0 0.00 0.00 0.00 38 1010.8
20260506131537 13 326 0.0 0.0 0.00 0.00 0.00 36 1010.8
20260506130037 14 287 0.0 0.0 0.00 0.00 0.00 33 1010.9
20260506124531 15 318 0.0 0.0 0.00 0.00 0.00 33 1010.9
20260506123031 15 335 0.0 0.0 0.00 0.00 0.00 33 1011.0
20260506121529 15 246 0.0 0.0 0.00 0.00 0.00 31 1011.0
20260506120027 15 267 0.0 0.0 0.00 0.00 0.00 31 1011.0
20260506114528 15 259 0.0 0.0 0.00 0.00 0.00 31 1011.0
20260506113025 15 298 0.0 0.0 0.00 0.00 0.00 30 1011.0
20260506111529 14 280 0.0 0.0 0.00 0.00 0.00 30 1011.0
20260506110024 14 279 0.0 0.0 0.00 0.00 0.00 32 1011.0
20260506104524 14 286 0.0 0.0 0.00 0.00 0.00 30 1011.2
20260506103022 14 234 0.0 0.0 0.00 0.00 0.00 31 1011.2
20260506101522 14 313 0.0 0.0 0.00 0.00 0.00 32 1011.2
20260506100020 13 219 0.0 0.0 0.00 0.00 0.00 34 1011.5
20260506094520 13 303 0.0 0.0 0.00 0.00 0.00 35 1011.6
20260506093020 13 225 0.0 0.0 0.00 0.00 0.00 36 1011.6